This is the latest recevied weather packets stored in our database for station/object JA1KWV-11. If no packets are shown the sender has not sent any weather packets the latest 10 day(s).
| Time | Temp. | Humidity | Pressure | Rain* | Wind** | Luminosity | Snow |
|---|---|---|---|---|---|---|---|
| 1778122473 | 26.11° C | 72% | 1012 hPa | 0 mm | - | - | - |
| 1778121993 | 26.11° C | 73% | 1012 hPa | 0 mm | - | - | - |
| 1778121513 | 26.11° C | 70% | 1012.2 hPa | 0 mm | - | - | - |
| 1778121033 | 26.11° C | 72% | 1012 hPa | 0 mm | - | - | - |
| 1778120553 | 26.11° C | 72% | 1012.2 hPa | 0 mm | - | - | - |
| 1778120072 | 26.11° C | 71% | 1012.2 hPa | 0 mm | - | - | - |
| 1778119592 | 26.11° C | 72% | 1012.3 hPa | 0 mm | - | - | - |
| 1778119112 | 26.11° C | 72% | 1012.6 hPa | 0 mm | - | - | - |
| 1778118632 | 26.11° C | 71% | 1012.6 hPa | 0 mm | - | - | - |
| 1778118152 | 26.11° C | 72% | 1012.7 hPa | 0 mm | - | - | - |
| 1778117671 | 26.11° C | 72% | 1013 hPa | 0 mm | - | - | - |
| 1778117191 | 26.11° C | 71% | 1013.1 hPa | 0 mm | - | - | - |
| 1778116711 | 26.11° C | 72% | 1013.1 hPa | 0 mm | - | - | - |
| 1778116231 | 26.11° C | 72% | 1013.1 hPa | 0 mm | - | - | - |
| 1778115750 | 26.11° C | 73% | 1013.2 hPa | 0 mm | - | - | - |
| 1778115270 | 26.11° C | 73% | 1013.2 hPa | 0 mm | - | - | - |
| 1778114790 | 26.11° C | 71% | 1013.1 hPa | 0 mm | - | - | - |
| 1778114310 | 26.11° C | 73% | 1013.5 hPa | 0 mm | - | - | - |
| 1778113829 | 26.11° C | 73% | 1013.6 hPa | 0 mm | - | - | - |
| 1778113349 | 26.11° C | 73% | 1013.7 hPa | 0 mm | - | - | - |
| 1778112869 | 26.11° C | 73% | 1013.8 hPa | 0 mm | - | - | - |
| 1778112389 | 26.11° C | 73% | 1013.7 hPa | 0 mm | - | - | - |
| 1778111909 | 26.11° C | 74% | 1013.9 hPa | 0 mm | - | - | - |
| 1778111428 | 25.56° C | 73% | 1014 hPa | 0 mm | - | - | - |
| 1778110949 | 25.56° C | 74% | 1014 hPa | 0 mm | - | - | - |
* Rain since midnight (hover to see other rain measurements)
** Current wind speed in m/s (hover to see current wind gust speed)